Weather History for Harrison, AR

Change the Weather History Date:

Monday, February 13, 2012

  Actual Average Record
Temperature  
Mean Temperature 31 °F 40 °F  
Max Temperature 34 °F 50 °F 81 °F (1962)
Min Temperature 27 °F 30 °F -20 °F (1905)
Degree Days  
Heating Degree Days 34 25  
Month to date heating degree days 351 340  
Since 1 July heating degree days 2464 2826  
Cooling Degree Days 0 0  
Month to date cooling degree days 0 0  
Year to date cooling degree days 0 0  
Moisture  
Dew Point 27 °F    
Average Humidity 65    
Maximum Humidity 100    
Minimum Humidity 29    
Precipitation  
Precipitation 0.15 in 0.09 in 2.44 in (1989)
Month to date precipitation 1.40 1.17  
Year to date precipitation 4.66 3.73  
Snow  
Snow 1.00 in 0.10 in 1.50 in (1948)
Month to date snowfall 1.0 1.7  
Since 1 July snowfall 2.1 7.7  
Snow Depth 0.00 in    
Sea Level Pressure  
Sea Level Pressure 29.99 in    
Wind  
Wind Speed 11 mph (SSE)    
Max Wind Speed 23 mph    
Max Gust Speed 26 mph    
Visibility 5 miles    
Events Fog , Rain , Snow    
T = Trace of Precipitation, MM = Missing Value Source: NWS Daily Summary

Daily Weather History Graph

Daily Weather History Graph

Search for Another Location

Airport:

Trip Planner

Search our weather history database for the weather conditions in past years. The results will help you decide how hot, cold, wet, or windy it might be!

Date:

Astronomy

Feb. 13, 2012 Rise Set
Actual Time 7:02 AM CST 5:51 PM CST
Civil Twilight 6:36 AM CST 6:17 PM CST
Nautical Twilight 6:06 AM CST 6:47 PM CST
Astronomical Twilight 5:36 AM CST 7:17 PM CST
Moon No Moon Rise 10:16 AM CST (2/13)
Length of Visible Light 11h 41m
Length of Day
10h 48m
Waning Gibbous, 61% of the Moon is Illuminated
Feb 13
Waning Gibbous
Feb 14
Last Quarter
Feb 21
New
Feb 29
First Quarter
Mar 8
Full

Hourly Weather History & Observations

Time (CST) Temp. Windchill Dew Point Humidity Pressure Visibility Wind Dir Wind Speed Gust Speed Precip Events Conditions
12:53 AM 33.1 °F 23.0 °F 5.0 °F 31% 30.22 in 10.0 mi SSE 15.0 mph - N/A   Overcast
1:53 AM 33.1 °F 22.6 °F 6.1 °F 32% 30.19 in 10.0 mi SSE 16.1 mph - N/A   Overcast
2:18 AM 28.4 °F 18.0 °F 23.0 °F 80% 30.18 in 1.8 mi South 12.7 mph 21.9 mph 0.00 in Snow Light Snow
2:31 AM 26.6 °F 15.2 °F 24.8 °F 93% 30.17 in 1.2 mi South 13.8 mph - 0.00 in Snow Light Snow
2:38 AM 26.6 °F 15.2 °F 24.8 °F 93% 30.17 in 1.2 mi South 13.8 mph 18.4 mph 0.00 in Snow Light Snow
2:53 AM 27.0 °F 16.7 °F 24.1 °F 89% 30.19 in 1.8 mi SSE 11.5 mph 23.0 mph 0.01 in Snow Light Snow
3:03 AM 26.6 °F 14.3 °F 24.8 °F 93% 30.16 in 2.5 mi South 16.1 mph 20.7 mph 0.00 in Snow Light Snow
3:13 AM 26.6 °F 14.7 °F 24.8 °F 93% 30.15 in 1.2 mi South 15.0 mph 21.9 mph 0.00 in Snow Light Snow
3:38 AM 26.6 °F 18.2 °F 24.8 °F 93% 30.13 in 3.0 mi SSE 8.1 mph - 0.00 in Snow Light Snow
3:48 AM 26.6 °F 18.2 °F 24.8 °F 93% 30.13 in 8.0 mi SSE 8.1 mph - 0.00 in Snow Light Snow
3:53 AM 27.0 °F 18.7 °F 24.1 °F 89% 30.16 in 9.0 mi SSE 8.1 mph - 0.00 in   Overcast
4:53 AM 27.0 °F 18.0 °F 24.1 °F 89% 30.14 in 10.0 mi ESE 9.2 mph - N/A   Overcast
5:53 AM 28.0 °F 20.0 °F 24.1 °F 85% 30.14 in 10.0 mi SE 8.1 mph - N/A   Overcast
6:53 AM 28.9 °F 19.2 °F 19.9 °F 69% 30.13 in 10.0 mi SSE 11.5 mph - 0.00 in   Overcast
7:53 AM 28.9 °F 17.3 °F 23.0 °F 78% 30.09 in 4.0 mi SSE 16.1 mph - 0.00 in Snow Light Snow
8:01 AM 28.4 °F 15.4 °F 24.8 °F 86% 30.07 in 1.8 mi SSE 19.6 mph - 0.00 in Snow Light Snow
8:16 AM 28.4 °F 18.0 °F 24.8 °F 86% 30.06 in 2.5 mi SE 12.7 mph - 0.00 in Snow Light Snow
8:24 AM 28.4 °F 17.0 °F 24.8 °F 86% 30.06 in 3.0 mi SSE 15.0 mph - 0.00 in Snow Light Snow
8:42 AM 28.4 °F 15.8 °F 26.6 °F 93% 30.05 in 7.0 mi SSE 18.4 mph - 0.00 in Rain Light Freezing Rain
8:53 AM 28.0 °F 15.7 °F 26.1 °F 92% 30.08 in 7.0 mi SSE 17.3 mph - 0.00 in Rain Light Freezing Rain
9:02 AM 28.4 °F 16.2 °F 26.6 °F 93% 30.05 in 6.0 mi SSE 17.3 mph - 0.01 in Snow Light Snow
9:23 AM 28.4 °F 15.4 °F 26.6 °F 93% 30.04 in 1.8 mi SE 19.6 mph - 0.01 in Snow Light Snow
9:32 AM 28.4 °F 15.8 °F 26.6 °F 93% 30.04 in 0.5 mi SE 18.4 mph - 0.02 in Fog , Snow Snow
9:42 AM 28.4 °F 16.2 °F 26.6 °F 93% 30.04 in 0.5 mi SSE 17.3 mph 24.2 mph 0.04 in Fog , Snow Snow
9:53 AM 28.0 °F 16.5 °F 27.0 °F 96% 30.07 in 0.8 mi SE 15.0 mph - 0.04 in Snow Light Snow
10:00 AM 28.4 °F 17.0 °F 26.6 °F 93% 30.03 in 1.0 mi SE 15.0 mph - 0.00 in Snow Light Snow
10:27 AM 28.4 °F 17.5 °F 26.6 °F 93% 30.02 in 1.0 mi SE 13.8 mph - 0.00 in Snow Light Snow
10:41 AM 28.4 °F 18.0 °F 26.6 °F 93% 30.01 in 0.5 mi SE 12.7 mph - 0.02 in Fog , Snow Snow
10:53 AM 28.9 °F 18.2 °F 28.0 °F 96% 30.03 in 1.0 mi SE 13.8 mph 21.9 mph 0.03 in Snow Light Snow
11:09 AM 28.4 °F 17.5 °F 28.4 °F 100% 29.99 in 2.5 mi SE 13.8 mph 24.2 mph 0.01 in Snow Light Snow
11:24 AM 30.2 °F 19.3 °F 28.4 °F 93% 29.98 in 5.0 mi SE 15.0 mph - 0.01 in Snow Light Snow
11:37 AM 30.2 °F 18.9 °F 28.4 °F 93% 29.97 in 9.0 mi SSE 16.1 mph 24.2 mph 0.01 in   Overcast
11:53 AM 30.0 °F 18.7 °F 28.0 °F 92% 29.98 in 10.0 mi SSE 16.1 mph 26.5 mph 0.01 in   Overcast
12:26 PM 30.2 °F 18.5 °F 28.4 °F 93% 29.93 in 9.0 mi SSE 17.3 mph 26.5 mph 0.01 in Rain Light Freezing Rain
12:53 PM 30.9 °F 21.7 °F 28.9 °F 92% 29.94 in 7.0 mi SSE 11.5 mph 19.6 mph 0.02 in Rain Light Freezing Rain
1:04 PM 30.2 °F 18.9 °F 28.4 °F 93% 29.90 in 4.0 mi SSE 16.1 mph 20.7 mph 0.02 in Rain Light Freezing Rain
1:17 PM 30.2 °F 19.3 °F 28.4 °F 93% 29.90 in 8.0 mi SSE 15.0 mph - 0.02 in Rain Light Freezing Rain
1:28 PM 30.2 °F 19.3 °F 28.4 °F 93% 29.89 in 10.0 mi SSE 15.0 mph - 0.02 in Rain Light Freezing Rain
1:53 PM 30.9 °F 21.2 °F 28.9 °F 92% 29.91 in 5.0 mi SSE 12.7 mph - 0.04 in Rain Light Freezing Rain
2:15 PM 32.0 °F 23.0 °F 28.4 °F 87% 29.88 in 10.0 mi SSE 11.5 mph - 0.00 in Rain Light Freezing Rain
2:23 PM 32.0 °F 22.1 °F 30.2 °F 93% 29.88 in 10.0 mi SSE 13.8 mph - 0.00 in   Overcast
2:53 PM 33.1 °F 22.6 °F 30.0 °F 89% 29.89 in 9.0 mi SSE 16.1 mph - 0.00 in   Overcast
3:01 PM 33.8 °F 24.3 °F 30.2 °F 87% 29.86 in 10.0 mi SSE 13.8 mph - N/A   Overcast
3:48 PM 32.0 °F 22.1 °F 30.2 °F 93% 29.84 in 7.0 mi SSE 13.8 mph - 0.00 in   Overcast
3:53 PM 32.0 °F 23.0 °F 30.0 °F 92% 29.88 in 8.0 mi SSE 11.5 mph - 0.00 in   Overcast
4:44 PM 32.0 °F 21.2 °F 30.2 °F 93% 29.82 in 10.0 mi SSE 16.1 mph - 0.00 in   Overcast
4:53 PM 32.0 °F 23.0 °F 30.0 °F 92% 29.85 in 10.0 mi SSE 11.5 mph - 0.00 in   Overcast
5:00 PM 32.0 °F 22.5 °F 30.2 °F 93% 29.82 in 10.0 mi SE 12.7 mph - N/A   Overcast
5:53 PM 32.0 °F 22.5 °F 30.0 °F 92% 29.86 in 10.0 mi SE 12.7 mph - N/A   Overcast
6:53 PM 30.9 °F 21.7 °F 30.0 °F 96% 29.87 in 10.0 mi SSE 11.5 mph - N/A   Overcast
7:53 PM 32.0 °F 28.7 °F 30.9 °F 96% 29.89 in 3.0 mi ESE 3.5 mph - N/A   Overcast
8:06 PM 30.2 °F 25.4 °F 30.2 °F 100% 29.87 in 3.0 mi ESE 4.6 mph - N/A   Overcast
8:53 PM 32.0 °F 24.8 °F 30.9 °F 96% 29.90 in 3.0 mi SSE 8.1 mph - N/A   Overcast
9:53 PM 32.0 °F 25.6 °F 30.9 °F 96% 29.89 in 7.0 mi SE 6.9 mph - N/A   Overcast
10:00 PM 32.0 °F 25.6 °F 30.2 °F 93% 29.86 in 7.0 mi SE 6.9 mph - N/A   Overcast
10:19 PM 32.0 °F 26.4 °F 30.2 °F 93% 29.86 in 4.0 mi SE 5.8 mph - 0.00 in Snow Light Snow
10:38 PM 32.0 °F 26.4 °F 30.2 °F 93% 29.85 in 2.5 mi South 5.8 mph - 0.00 in Snow Light Snow
10:48 PM 30.2 °F 22.6 °F 30.2 °F 100% 29.85 in 2.0 mi South 8.1 mph - 0.00 in Snow Light Snow
10:53 PM 30.9 °F 23.5 °F 30.9 °F 100% 29.88 in 3.0 mi South 8.1 mph - 0.00 in Snow Light Snow
11:02 PM 32.0 °F 25.6 °F 30.2 °F 93% 29.85 in 2.5 mi SSE 6.9 mph - 0.00 in Snow Light Snow
11:12 PM 32.0 °F 26.4 °F 30.2 °F 93% 29.85 in 3.0 mi South 5.8 mph - 0.00 in Snow Light Snow
11:45 PM 32.0 °F - 30.2 °F 93% 29.85 in 2.5 mi Calm Calm - N/A Snow Light Snow
11:53 PM 32.0 °F - 30.9 °F 96% 29.88 in 6.0 mi Calm Calm - 0.00 in Snow Light Snow